Simultaneous Nadir Overpasses (SNOs) Predictions

Prediction of SNOs between LANDSAT-8 and NPP Satellite Orbit:

Table of predicted SNOs for the next 14.0 days since TLE Epoch: 11/17/2018
Index Date (LANDSAT-8) Time (LANDSAT-8) Lat,Lon (LANDSAT-8) SZA (LANDSAT-8 ) Date (NPP) Time (NPP) Lat,Lon (NPP) SZA (NPP ) Distance(km) Time Diff (sec)
1 11/17/2018 06:08:47 -70.48, -95.25 90.66 11/17/2018 06:07:35 -70.54, -96.15 90.60 34.12 72
2 11/17/2018 06:58:19 70.10, 71.85 88.98 11/17/2018 06:58:13 70.09, 71.85 88.97 0.90 6
3 11/17/2018 07:47:49 -69.99,-120.68 91.13 11/17/2018 07:48:54 -69.96,-120.64 91.15 3.29 65
4 11/19/2018 22:25:22 -70.15, 20.15 90.35 11/19/2018 22:24:23 -70.15, 20.22 90.35 2.49 59
5 11/19/2018 23:14:49 70.04,-172.35 89.55 11/19/2018 23:15:07 70.03,-172.28 89.54 3.18 18
6 11/20/2018 00:04:30 -69.33, -5.70 91.16 11/20/2018 00:05:38 -69.36, -3.99 91.12 66.98 68
7 11/22/2018 14:41:51 -70.14, 136.03 89.77 11/22/2018 14:41:18 -70.14, 136.01 89.78 1.01 33
8 11/22/2018 15:31:18 70.03, -56.48 90.13 11/22/2018 15:32:02 70.02, -56.50 90.12 2.15 44
9 11/25/2018 06:08:47 70.40, 84.65 91.03 11/25/2018 06:07:35 70.42, 84.01 91.06 23.87 72
10 11/25/2018 06:58:21 -70.07,-108.19 89.29 11/25/2018 06:58:12 -70.07,-108.12 89.30 2.60 9
11 11/25/2018 07:47:48 69.96, 59.30 90.61 11/25/2018 07:48:56 69.95, 59.36 90.60 2.60 68
12 11/27/2018 22:25:19 70.16,-159.82 91.29 11/27/2018 22:24:24 70.15,-159.80 91.29 0.88 55
13 11/27/2018 23:14:49 -70.05, 7.66 88.81 11/27/2018 23:15:06 -70.06, 7.66 88.81 0.56 17
14 11/28/2018 00:04:29 69.22, 174.18 90.37 11/28/2018 00:05:36 69.20, 176.22 90.35 80.62 67
15 11/30/2018 14:41:48 70.13, -43.98 91.71 11/30/2018 14:41:19 70.15, -44.03 91.74 2.99 29
16 11/30/2018 15:31:18 -70.03, 123.51 88.39 11/30/2018 15:32:00 -70.00, 123.52 88.41 3.23 42




NCC Satellite Simultaneous Nadir Overpasses (SNOs) Prediction Service
